This is the latest recevied weather packets stored in our database for station/object DL2GKM-6. If no packets are shown the sender has not sent any weather packets the latest 1 day(s).
| Time | Temp. | Humidity | Pressure | Rain* | Wind** | Luminosity | Snow |
|---|---|---|---|---|---|---|---|
| 1836274802 | 15° C | 75% | 1023.4 hPa | 119.38 mm | 2.24 m/s, 137° | - | - |
| 1836274547 | 15° C | 75% | 1023.4 hPa | 119.38 mm | 2.68 m/s, 188° | - | - |
| 1836274331 | 15.56° C | 75% | 1023.4 hPa | 119.38 mm | 2.24 m/s, 152° | - | - |
| 1836274292 | 15° C | 75% | 1023.5 hPa | 119.38 mm | 1.79 m/s, 138° | - | - |
| 1836274012 | 15° C | 75% | 1023.5 hPa | 119.38 mm | 2.68 m/s, 150° | - | - |
| 1778022336 | 10.56° C | 83% | 1007.8 hPa | 128.78 mm | 2.68 m/s, 185° | - | - |
| 1778022051 | 10.56° C | 83% | 1007.8 hPa | 128.78 mm | 0 m/s | - | - |
| 1778021755 | 10.56° C | 83% | 1007.9 hPa | 128.78 mm | 1.34 m/s, 169° | - | - |
| 1778021454 | 10.56° C | 83% | 1007.9 hPa | 128.78 mm | 2.24 m/s, 151° | - | - |
| 1778021184 | 11.11° C | 83% | 1007.9 hPa | 128.78 mm | 1.79 m/s, 171° | - | - |
| 1778020901 | 11.11° C | 83% | 1007.8 hPa | 128.78 mm | 2.68 m/s, 182° | - | - |
| 1778020611 | 11.11° C | 83% | 1007.8 hPa | 128.78 mm | 1.79 m/s, 160° | - | - |
| 1778020361 | 11.11° C | 83% | 1007.8 hPa | 128.78 mm | 2.68 m/s, 172° | - | - |
| 1778020061 | 11.11° C | 83% | 1007.8 hPa | 128.78 mm | 2.68 m/s, 152° | - | - |
| 1778019814 | 11.11° C | 83% | 1007.7 hPa | 128.78 mm | 3.13 m/s, 140° | - | - |
| 1778019575 | 11.11° C | 83% | 1007.8 hPa | 128.78 mm | 4.02 m/s, 172° | - | - |
| 1778019301 | 11.11° C | 83% | 1007.8 hPa | 128.78 mm | 1.79 m/s, 227° | - | - |
| 1778019046 | 11.11° C | 83% | 1007.8 hPa | 128.78 mm | 4.02 m/s, 241° | - | - |
| 1778018786 | 11.11° C | 82% | 1007.8 hPa | 128.78 mm | 3.13 m/s, 138° | - | - |
| 1778018514 | 11.11° C | 82% | 1007.8 hPa | 128.78 mm | 0.89 m/s, 152° | - | - |
| 1778018270 | 11.67° C | 82% | 1007.8 hPa | 128.78 mm | 0 m/s | - | - |
| 1778018014 | 11.67° C | 82% | 1007.8 hPa | 128.78 mm | 3.58 m/s, 138° | - | - |
| 1778017737 | 11.67° C | 82% | 1007.9 hPa | 128.78 mm | 3.58 m/s, 148° | - | - |
| 1778017461 | 11.67° C | 82% | 1007.9 hPa | 128.78 mm | 3.13 m/s, 148° | - | - |
| 1778017186 | 11.67° C | 82% | 1008 hPa | 128.78 mm | 3.58 m/s, 144° | - | - |
* Rain latest 24 hours (hover to see other rain measurements)
** Current wind speed in m/s (hover to see current wind gust speed)